EW2255 Weather Reports


Display with metric or nautical units.
time (UTC)temp
F
wind
direction
speed
MPH
gust
MPH
rain 1hr
in
rain 24hr
in
rain mn
in
humidity
%
barometer
mb
20170426134922 36 9 4.0 13.0 0.06 0.53 0.53 96 1000.2
20170426134212 36 105 3.0 19.0 0.06 0.52 0.52 96 1000.6
20170426133911 36 76 5.0 19.0 0.05 0.51 0.51 96 1000.1
20170426133421 36 69 6.0 14.0 0.06 0.51 0.51 96 1000.3
20170426132929 36 52 2.0 16.0 0.05 0.50 0.50 96 1000.6
20170426132515 36 97 6.0 16.0 0.05 0.49 0.49 96 1000.8
20170426132413 36 71 6.0 16.0 0.05 0.49 0.49 96 1000.4
20170426131915 37 74 5.0 16.0 0.05 0.49 0.49 96 1000.3
20170426131412 37 86 6.0 16.0 0.05 0.49 0.49 96 1000.3
20170426130922 37 82 7.0 15.0 0.04 0.48 0.48 96 1000.6
20170426130853 36 76 7.0 15.0 0.04 0.48 0.48 96 1001.1
20170426130426 37 85 2.0 11.0 0.04 0.47 0.47 96 1000.7
20170426125908 37 87 6.0 11.0 0.05 0.47 0.47 96 1000.8
20170426125419 37 98 4.0 10.0 0.05 0.47 0.47 96 1000.8
20170426125254 36 28 4.0 10.0 0.05 0.47 0.47 96 1001.4
20170426124921 37 55 3.0 0.0 0.00 0.00 0.47 96 1000.9
20170426124430 37 34 3.0 10.0 0.05 0.46 0.46 96 1001.1
20170426123912 37 121 6.0 16.0 0.05 0.46 0.46 96 1000.9
20170426123700 36 40 5.0 18.0 0.06 0.46 0.46 96 1001.3
20170426123417 37 80 3.0 18.0 0.05 0.45 0.45 96 1000.9
20170426122926 37 109 8.0 18.0 0.04 0.44 0.44 96 1001.0
20170426122427 37 57 6.0 12.0 0.05 0.44 0.44 96 1000.9
20170426122053 36 69 3.0 12.0 0.05 0.44 0.44 96 1001.3
20170426121909 37 107 7.0 12.0 0.06 0.44 0.44 96 1000.7
20170426121412 37 61 5.0 12.0 0.06 0.44 0.44 96 1000.9
20170426120925 36 144 5.0 12.0 0.07 0.44 0.44 96 1001.0
20170426120503 36 75 2.0 11.0 0.07 0.43 0.43 96 1001.6
20170426120409 36 92 4.0 11.0 0.07 0.43 0.43 96 1001.2
20170426115911 36 57 3.0 15.0 0.07 0.42 0.42 96 1001.2
20170426115420 36 84 4.0 15.0 0.08 0.42 0.42 96 1001.4
20170426114925 36 28 4.0 13.0 0.09 0.42 0.42 96 1001.4
20170426114850 36 74 3.0 13.0 0.09 0.41 0.41 96 1001.9
20170426114428 36 49 6.0 13.0 0.09 0.41 0.41 96 1001.4
20170426113912 36 72 3.0 13.0 0.11 0.41 0.41 96 1001.5
20170426113423 36 55 5.0 13.0 0.10 0.40 0.40 96 1001.6
20170426113255 36 88 4.0 13.0 0.10 0.40 0.40 96 1002.1
20170426112927 36 74 6.0 12.0 0.11 0.40 0.40 96 1001.7
20170426112411 36 57 4.0 13.0 0.11 0.39 0.39 96 1001.6
20170426111922 36 99 5.0 14.0 0.11 0.38 0.38 96 1001.8
20170426111700 36 87 5.0 14.0 0.11 0.38 0.38 96 1002.3
20170426111424 36 67 5.0 14.0 0.11 0.38 0.38 96 1001.8
20170426110908 36 63 4.0 14.0 0.11 0.37 0.37 96 1001.6
20170426110426 36 67 2.0 11.0 0.11 0.36 0.36 96 1001.5
20170426110008 36 97 3.0 11.0 0.11 0.35 0.35 96 1002.4
20170426105927 36 105 4.0 13.0 0.11 0.35 0.35 96 1002.0
20170426105410 36 34 5.0 16.0 0.11 0.34 0.34 96 1001.9
20170426104913 36 86 5.0 16.0 0.09 0.32 0.32 96 1001.9
20170426104429 36 90 5.0 16.0 0.09 0.31 0.31 96 1001.9
20170426104306 36 68 7.0 16.0 0.09 0.31 0.31 96 1002.4
20170426103911 36 109 7.0 14.0 0.09 0.30 0.30 96 1001.9
20170426103412 36 69 5.0 13.0 0.09 0.30 0.30 96 1002.1
20170426102922 36 92 3.0 10.0 0.09 0.29 0.29 96 1002.3
20170426102704 36 69 3.0 10.0 0.09 0.28 0.28 96 1002.8
20170426102425 36 63 2.0 8.0 0.08 0.28 0.28 96 1002.4
20170426101935 36 39 2.0 9.0 0.07 0.27 0.27 96 1002.5
20170426101419 36 66 4.0 10.0 0.08 0.27 0.27 96 1002.5
20170426101103 36 74 2.0 10.0 0.07 0.26 0.26 96 1002.9
20170426100923 36 63 4.0 10.0 0.07 0.26 0.26 96 1002.4
20170426100428 36 63 4.0 8.0 0.07 0.25 0.25 96 1002.4
20170426095936 36 19 4.0 10.0 0.07 0.24 0.24 96 1002.3
20170426095503 35 83 5.0 10.0 0.07 0.23 0.23 96 1002.7
20170426095416 36 79 6.0 10.0 0.07 0.23 0.23 96 1002.3
20170426094921 36 51 5.0 14.0 0.07 0.22 0.22 96 1002.3
20170426094431 36 61 4.0 14.0 0.08 0.22 0.22 96 1002.4
20170426093916 36 65 3.0 10.0 0.07 0.21 0.21 96 1002.3
20170426093420 36 51 2.0 11.0 0.08 0.21 0.21 96 1002.4
20170426092930 36 36 4.0 11.0 0.07 0.20 0.20 96 1002.8
20170426092417 36 69 5.0 19.0 0.07 0.20 0.20 96 1002.6
20170426092306 35 34 4.0 19.0 0.07 0.20 0.20 96 1003.0
20170426091921 36 109 3.0 19.0 0.08 0.20 0.20 95 1002.4
20170426091424 36 69 4.0 10.0 0.07 0.19 0.19 95 1002.6
20170426090916 36 111 4.0 15.0 0.08 0.19 0.19 95 1002.6
20170426090707 36 36 4.0 15.0 0.07 0.18 0.18 95 1003.0
20170426090417 36 49 4.0 15.0 0.07 0.18 0.18 95 1003.0
20170426085918 36 88 3.0 11.0 0.06 0.17 0.17 95 1003.2
20170426085428 36 98 6.0 13.0 0.07 0.16 0.16 95 1003.3
20170426085108 36 67 4.0 12.0 0.06 0.15 0.15 95 1003.9
20170426084910 37 74 5.0 8.0 0.07 0.15 0.15 95 1003.7
20170426084412 37 37 4.0 11.0 0.07 0.14 0.14 96 1003.8
20170426083922 36 43 2.0 7.0 0.08 0.14 0.14 95 1003.8
20170426083507 36 90 2.0 5.0 0.07 0.13 0.13 95 1004.3
20170426083426 36 88 2.0 5.0 0.07 0.13 0.13 95 1004.0
20170426082927 36 52 2.0 6.0 0.07 0.13 0.13 95 1004.1
20170426082504 36 45 1.0 6.0 0.07 0.13 0.13 95 1004.1
20170426081930 36 69 3.0 6.0 0.06 0.12 0.12 95 1004.2
20170426081722 36 76 1.0 5.0 0.06 0.12 0.12 95 1004.7
20170426080909 36 55 0.0 4.0 0.05 0.11 0.11 95 1004.5
20170426080412 36 55 0.0 4.0 0.05 0.11 0.11 95 1004.7
20170426075938 36 82 0.0 7.0 0.05 0.11 0.11 95 1005.3
20170426075920 36 82 0.0 7.0 0.04 0.10 0.10 95 1004.9
20170426075430 36 82 0.0 7.0 0.03 0.09 0.09 95 1005.0
20170426074913 36 96 2.0 7.0 0.02 0.08 0.08 95 1005.0
20170426074416 36 38 1.0 6.0 0.01 0.07 0.07 95 1004.9
20170426074326 36 78 1.0 6.0 0.01 0.07 0.07 95 1005.3
20170426073925 37 91 3.0 7.0 0.00 0.06 0.06 95 1004.9
20170426073410 37 94 1.0 7.0 0.00 0.06 0.06 95 1004.8
20170426072910 37 66 1.0 8.0 0.00 0.06 0.06 95 1004.9
20170426072728 36 65 1.0 8.0 0.00 0.06 0.06 95 1005.4
20170426072421 37 53 2.0 9.0 0.00 0.06 0.06 95 1005.2
20170426071923 37 71 4.0 9.0 0.00 0.06 0.06 94 1005.2
20170426071423 37 95 2.0 6.0 0.00 0.06 0.06 94 1005.3
20170426071128 36 77 1.0 5.0 0.00 0.06 0.06 94 1005.7
20170426070932 37 80 1.0 4.0 0.00 0.06 0.06 94 1005.3
20170426070415 37 80 0.0 4.0 0.00 0.06 0.06 95 1005.4
20170426065916 37 80 2.0 4.0 0.00 0.06 0.06 94 1005.5
20170426065525 37 78 1.0 4.0 0.00 0.06 0.06 94 1005.8
20170426065425 37 78 2.0 5.0 0.00 0.06 0.06 94 1005.4
20170426064909 37 78 0.0 5.0 0.00 0.06 0.06 94 1005.4
20170426064413 37 75 0.0 4.0 0.00 0.06 0.06 94 1005.4
20170426063934 37 74 1.0 4.0 0.00 0.06 0.06 94 1005.8
20170426063914 37 74 2.0 4.0 0.00 0.06 0.06 94 1005.4
20170426063425 37 68 0.0 8.0 0.01 0.06 0.06 94 1005.2
20170426062926 38 62 5.0 9.0 0.01 0.06 0.06 94 1005.0
20170426062408 38 79 4.0 9.0 0.01 0.06 0.06 94 1005.2
20170426062320 37 88 4.0 9.0 0.01 0.06 0.06 94 1005.6
20170426061918 38 88 3.0 8.0 0.01 0.06 0.06 94 1005.4
20170426061421 38 69 3.0 8.0 0.01 0.06 0.06 94 1005.4
20170426060930 38 106 4.0 8.0 0.01 0.06 0.06 94 1005.5
20170426060717 37 77 3.0 7.0 0.02 0.06 0.06 94 1005.8
20170426060414 38 104 2.0 7.0 0.02 0.06 0.06 94 1005.5
20170426055915 38 73 2.0 7.0 0.02 0.06 0.06 94 1005.6
20170426055417 38 67 4.0 7.0 0.03 0.06 0.06 94 1005.8
20170426055117 38 82 2.0 8.0 0.03 0.06 0.06 94 1006.2
20170426054926 38 84 3.0 8.0 0.03 0.06 0.06 94 1005.8
20170426054407 38 105 4.0 7.0 0.04 0.06 0.06 94 1006.0
20170426053912 38 61 1.0 4.0 0.04 0.06 0.06 94 1006.1
20170426053520 38 61 1.0 4.0 0.03 0.05 0.05 93 1006.5
20170426053422 38 61 2.0 4.0 0.03 0.05 0.05 93 1006.2
20170426052918 38 71 2.0 6.0 0.03 0.05 0.05 93 1006.3
20170426052421 38 80 3.0 6.0 0.03 0.05 0.05 93 1006.3
20170426051931 38 92 3.0 7.0 0.04 0.05 0.05 93 1006.4
20170426051716 38 96 1.0 7.0 0.04 0.05 0.05 93 1006.7
20170426051415 38 101 2.0 7.0 0.04 0.05 0.05 93 1006.5
20170426050925 39 88 4.0 7.0 0.04 0.05 0.05 93 1006.5
20170426050408 39 98 3.0 6.0 0.04 0.04 0.04 92 1006.5
20170426050025 38 92 2.0 5.0 0.04 0.04 0.04 92 1006.7
20170426045917 39 90 2.0 5.0 0.04 0.04 0.04 92 1006.4
20170426045419 39 92 0.0 6.0 0.03 0.03 0.03 92 1006.5
20170426044922 39 94 2.0 7.0 0.03 0.03 0.03 92 1006.6
20170426044432 40 90 4.0 7.0 0.02 0.02 0.02 91 1006.5
20170426044416 39 105 4.0 7.0 0.02 0.02 0.02 91 1006.8
20170426043910 40 87 3.0 7.0 0.02 0.02 0.02 91 1006.3
20170426043415 40 97 4.0 7.0 0.02 0.02 0.02 91 1006.3
20170426042922 40 74 3.0 7.0 0.02 0.02 0.02 90 1006.3
20170426042811 40 40 4.0 7.0 0.02 0.02 0.02 90 1006.6
20170426042424 40 91 2.0 7.0 0.02 0.02 0.02 90 1006.3
20170426041927 41 81 3.0 9.0 0.01 0.01 0.01 89 1006.3
20170426041409 41 109 4.0 9.0 0.01 0.01 0.01 89 1006.2
20170426041209 40 98 2.0 7.0 0.01 0.01 0.01 89 1006.5
20170426040422 41 49 3.0 10.0 0.00 0.00 0.00 88 1006.1
20170426035926 41 90 5.0 10.0 0.00 0.00 0.00 88 1006.0
20170426035622 41 71 2.0 7.0 0.00 0.00 0.00 89 1006.3
20170426035413 42 68 3.0 7.0 0.00 0.00 0.00 89 1006.0
20170426034916 42 68 2.0 9.0 0.00 0.00 0.00 89 1006.0
20170426034426 42 71 3.0 9.0 0.00 0.00 0.00 89 1006.0
20170426034015 42 62 4.0 8.0 0.00 0.00 0.00 89 1006.3
20170426033908 42 87 4.0 7.0 0.00 0.00 0.00 89 1006.0
20170426033413 43 92 3.0 8.0 0.00 0.00 0.00 89 1005.9
20170426032917 43 74 2.0 10.0 0.00 0.00 0.00 88 1005.8
20170426032426 43 46 1.0 10.0 0.00 0.00 0.00 88 1005.7
20170426032408 43 63 0.0 10.0 0.00 0.00 0.00 88 1006.0
20170426031909 43 93 5.0 10.0 0.00 0.00 0.00 88 1005.6
20170426031413 43 76 2.0 6.0 0.00 0.00 0.00 87 1005.5
20170426030812 43 74 1.0 6.0 0.00 0.00 0.00 87 1005.7
20170426030409 43 92 0.0 0.0 0.00 0.00 0.00 87 1005.4
20170426025911 44 92 0.0 0.0 0.00 0.00 0.00 87 1005.3
20170426025422 44 92 0.0 0.0 0.00 0.00 0.00 87 1005.2
20170426025211 43 92 0.0 0.0 0.00 0.00 0.00 87 1005.5
20170426024925 44 92 0.0 0.0 0.00 0.00 0.00 87 1005.0
20170426024411 44 92 0.0 2.0 0.00 0.00 0.00 87 1005.0
20170426023914 44 92 0.0 3.0 0.00 0.00 0.00 86 1004.9
20170426023614 43 92 1.0 3.0 0.00 0.00 0.00 86 1005.2
20170426023426 44 92 2.0 3.0 0.00 0.00 0.00 86 1004.9
20170426022907 44 92 0.0 0.0 0.00 0.00 0.00 86 1004.8
20170426022412 44 92 0.0 0.0 0.00 0.00 0.00 86 1004.8
20170426021929 44 92 0.0 1.0 0.00 0.00 0.00 86 1004.7
20170426021918 44 92 0.0 1.0 0.00 0.00 0.00 86 1005.0
20170426021413 45 92 0.0 2.0 0.00 0.00 0.00 86 1004.5
20170426020909 45 92 1.0 2.0 0.00 0.00 0.00 86 1004.4
20170426020414 45 92 0.0 1.0 0.00 0.00 0.00 86 1004.2
20170426020123 44 92 0.0 1.0 0.00 0.00 0.00 86 1004.5
20170426015922 45 92 0.0 1.0 0.00 0.00 0.00 86 1004.0
20170426015424 45 92 0.0 2.0 0.00 0.00 0.00 86 1003.9
20170426014907 45 92 1.0 2.0 0.00 0.00 0.00 86 1003.7
20170426014523 44 92 0.0 2.0 0.00 0.00 0.00 87 1003.8
20170426014411 45 92 0.0 2.0 0.00 0.00 0.00 87 1003.5
20170426013411 45 92 0.0 2.0 0.00 0.00 0.00 87 1003.0
20170426012950 44 92 0.0 3.0 0.00 0.00 0.00 88 1003.1
20170426012913 45 92 0.0 5.0 0.00 0.00 0.00 88 1002.8
20170426012423 45 92 2.0 5.0 0.00 0.00 0.00 88 1002.7
20170426011907 45 93 2.0 7.0 0.00 0.00 0.00 87 1002.6
20170426011411 45 105 3.0 7.0 0.00 0.00 0.00 87 1002.4
20170426011328 44 86 3.0 7.0 0.00 0.00 0.00 87 1002.7
20170426010919 45 87 3.0 6.0 0.00 0.00 0.00 87 1002.2
20170426005922 45 55 3.0 4.0 0.00 0.00 0.00 86 1002.2
20170426005731 44 90 3.0 5.0 0.00 0.00 0.00 86 1002.6
20170426005408 45 59 0.0 5.0 0.00 0.00 0.00 87 1002.3
20170426004919 45 59 2.0 7.0 0.00 0.00 0.00 86 1002.1
20170426004425 45 61 4.0 7.0 0.00 0.00 0.00 86 1001.9
20170426004143 45 95 2.0 6.0 0.00 0.00 0.00 86 1002.2
20170426003932 45 104 2.0 6.0 0.00 0.00 0.00 86 1001.9
20170426003420 46 104 2.0 5.0 0.00 0.00 0.00 86 1001.8
20170426002922 46 114 2.0 5.0 0.00 0.00 0.00 86 1001.8
20170426002540 45 68 2.0 7.0 0.00 0.00 0.00 86 1001.9
20170426002425 46 69 2.0 7.0 0.00 0.00 0.00 86 1001.6
20170426001916 46 105 1.0 9.0 0.00 0.00 0.00 87 1001.5
20170426001420 46 83 5.0 9.0 0.00 0.00 0.00 87 1001.4
20170426000943 45 105 4.0 8.0 0.00 0.00 0.00 87 1001.7
20170426000923 45 107 5.0 8.0 0.00 0.00 0.00 87 1001.4
20170426000408 45 88 4.0 7.0 0.00 0.00 0.00 88 1001.3
20170425235917 45 90 2.0 9.0 0.00 0.00 0.00 87 1001.3
20170425235423 45 86 5.0 9.0 0.00 0.00 0.00 87 1001.3
20170425235337 44 90 5.0 9.0 0.00 0.00 0.00 87 1001.6
20170425234915 45 86 5.0 8.0 0.00 0.00 0.00 88 1001.2
20170425234427 44 82 3.0 8.0 0.00 0.00 0.00 87 1001.1
20170425233915 44 88 3.0 8.0 0.00 0.00 0.00 87 1001.1
20170425233702 44 83 2.0 8.0 0.00 0.00 0.00 87 1001.5
20170425233419 44 83 4.0 8.0 0.00 0.00 0.00 87 1001.1
20170425232930 44 99 4.0 8.0 0.00 0.00 0.00 87 1001.1
20170425232413 44 54 4.0 8.0 0.00 0.00 0.00 86 1001.1
20170425232059 44 84 3.0 9.0 0.00 0.00 0.00 86 1001.4
20170425231915 44 74 4.0 9.0 0.00 0.00 0.00 86 1001.1
20170425231419 45 97 5.0 9.0 0.00 0.00 0.00 85 1001.1
20170425230928 45 73 3.0 5.0 0.00 0.00 0.00 85 1000.9
20170425230457 44 73 2.0 4.0 0.00 0.00 0.00 85 1001.3
20170425230412 45 74 3.0 5.0 0.00 0.00 0.00 85 1000.9
20170425225909 45 75 2.0 4.0 0.00 0.00 0.00 84 1000.9
20170425225418 45 72 2.0 7.0 0.00 0.00 0.00 84 1000.8
20170425224922 45 52 1.0 7.0 0.00 0.00 0.00 84 1000.5
20170425224844 45 52 1.0 7.0 0.00 0.00 0.00 84 1000.9
20170425224425 45 55 3.0 5.0 0.00 0.00 0.00 84 1000.5
20170425223916 45 86 1.0 6.0 0.00 0.00 0.00 84 1000.5
20170425223419 45 96 4.0 6.0 0.00 0.00 0.00 84 1000.5
20170425223246 45 77 1.0 8.0 0.00 0.00 0.00 84 1000.8
20170425222921 45 41 2.0 9.0 0.00 0.00 0.00 83 1000.4
20170425222432 45 126 5.0 9.0 0.00 0.00 0.00 82 1000.4
20170425221914 46 87 3.0 0.0 0.00 0.00 0.00 82 1000.3
20170425221643 45 53 2.0 8.0 0.00 0.00 0.00 82 1000.7
20170425221414 46 56 3.0 8.0 0.00 0.00 0.00 82 1000.4
20170425220924 46 38 2.0 7.0 0.00 0.00 0.00 81 1000.6
20170425220407 46 26 3.0 7.0 0.00 0.00 0.00 80 1000.6
20170425220044 46 96 1.0 10.0 0.00 0.00 0.00 81 1001.0
20170425215910 47 48 3.0 10.0 0.00 0.00 0.00 81 1000.6
20170425215412 47 54 4.0 10.0 0.00 0.00 0.00 80 1000.5
20170425214923 47 53 3.0 9.0 0.00 0.00 0.00 79 1000.3
20170425214452 47 37 3.0 9.0 0.00 0.00 0.00 79 1000.8
20170425214408 47 72 4.0 9.0 0.00 0.00 0.00 79 1000.4
20170425213912 48 117 5.0 9.0 0.00 0.00 0.00 78 1000.3
20170425213424 48 51 4.0 8.0 0.00 0.00 0.00 77 1000.4
20170425212919 49 72 3.0 8.0 0.00 0.00 0.00 77 1000.3
20170425212841 48 52 2.0 8.0 0.00 0.00 0.00 77 1000.7
20170425212430 49 49 2.0 13.0 0.00 0.00 0.00 77 1000.5
20170425211913 49 82 4.0 13.0 0.00 0.00 0.00 77 1000.5
20170425211415 49 24 3.0 11.0 0.00 0.00 0.00 78 1000.6
20170425211239 48 96 4.0 11.0 0.00 0.00 0.00 78 1001.0
20170425210927 48 65 7.0 14.0 0.00 0.00 0.00 77 1000.7
20170425210423 48 90 6.0 14.0 0.00 0.00 0.00 76 1000.7
20170425205912 49 59 3.0 8.0 0.00 0.00 0.00 76 1000.8
20170425205605 48 82 3.0 8.0 0.00 0.00 0.00 76 1001.2
20170425205417 49 61 3.0 8.0 0.00 0.00 0.00 76 1000.8
20170425204922 49 81 4.0 10.0 0.00 0.00 0.00 76 1000.8
20170425204430 49 94 4.0 10.0 0.00 0.00 0.00 76 1000.8
20170425203958 48 61 4.0 10.0 0.00 0.00 0.00 76 1001.2
20170425203912 49 58 6.0 10.0 0.00 0.00 0.00 76 1000.8
20170425203416 49 90 5.0 7.0 0.00 0.00 0.00 75 1000.7
20170425202924 49 113 4.0 6.0 0.00 0.00 0.00 74 1000.8
20170425202424 50 44 3.0 6.0 0.00 0.00 0.00 72 1001.0
20170425202353 50 71 2.0 6.0 0.00 0.00 0.00 72 1001.4
20170425201906 51 115 4.0 7.0 0.00 0.00 0.00 70 1000.8
20170425201416 52 57 3.0 9.0 0.00 0.00 0.00 71 1000.9
20170425200918 52 34 5.0 10.0 0.00 0.00 0.00 72 1000.7
20170425200746 51 113 5.0 10.0 0.00 0.00 0.00 70 1001.1
20170425200426 52 78 4.0 7.0 0.00 0.00 0.00 70 1000.7
20170425195908 53 67 3.0 7.0 0.00 0.00 0.00 69 1000.8
20170425195415 53 59 3.0 7.0 0.00 0.00 0.00 68 1000.9
20170425195050 53 80 3.0 7.0 0.00 0.00 0.00 69 1001.3
20170425194918 53 58 5.0 7.0 0.00 0.00 0.00 69 1000.9
20170425194427 52 5 4.0 10.0 0.00 0.00 0.00 71 1000.9
20170425193911 51 30 5.0 15.0 0.00 0.00 0.00 73 1000.9
20170425193450 49 69 6.0 15.0 0.00 0.00 0.00 73 1001.2
20170425193413 50 86 7.0 15.0 0.00 0.00 0.00 73 1000.9
20170425192914 50 138 4.0 10.0 0.00 0.00 0.00 73 1001.0
20170425192423 49 101 4.0 9.0 0.00 0.00 0.00 75 1001.1
20170425191925 48 104 6.0 11.0 0.00 0.00 0.00 75 1001.1
20170425191841 48 73 6.0 14.0 0.00 0.00 0.00 74 1001.5
20170425191435 49 106 6.0 14.0 0.00 0.00 0.00 73 1001.1
20170425191013 49 76 5.0 11.0 0.00 0.00 0.00 72 1001.3
20170425190411 50 33 6.0 11.0 0.00 0.00 0.00 69 1001.3
20170425190140 50 64 5.0 10.0 0.00 0.00 0.00 70 1001.6
20170425185914 51 92 4.0 9.0 0.00 0.00 0.00 70 1001.3
20170425185422 51 91 4.0 9.0 0.00 0.00 0.00 69 1001.3
20170425184926 51 92 4.0 9.0 0.00 0.00 0.00 71 1001.2
20170425184551 50 81 3.0 7.0 0.00 0.00 0.00 71 1001.6
20170425184407 50 40 3.0 7.0 0.00 0.00 0.00 72 1001.1
20170425183917 50 99 4.0 7.0 0.00 0.00 0.00 70 1001.3
20170425183420 50 57 2.0 4.0 0.00 0.00 0.00 69 1001.4
20170425182939 51 71 2.0 7.0 0.00 0.00 0.00 68 1001.9
20170425182919 51 73 2.0 7.0 0.00 0.00 0.00 68 1001.5
20170425182430 52 85 3.0 7.0 0.00 0.00 0.00 68 1001.6
20170425181913 52 24 2.0 5.0 0.00 0.00 0.00 69 1001.5
20170425181416 51 11 1.0 5.0 0.00 0.00 0.00 70 1001.6
20170425181333 50 10 1.0 5.0 0.00 0.00 0.00 70 1002.0
20170425180925 51 44 3.0 5.0 0.00 0.00 0.00 70 1001.6
20170425180412 50 5 2.0 8.0 0.00 0.00 0.00 70 1001.7
20170425175915 50 70 4.0 8.0 0.00 0.00 0.00 67 1001.6
20170425175740 50 59 5.0 8.0 0.00 0.00 0.00 67 1002.1
20170425175417 52 67 4.0 8.0 0.00 0.00 0.00 66 1001.7
20170425174912 53 61 3.0 8.0 0.00 0.00 0.00 65 1001.8
20170425174414 54 97 5.0 8.0 0.00 0.00 0.00 64 1001.8
20170425174134 53 86 1.0 8.0 0.00 0.00 0.00 66 1002.2
20170425173915 53 79 3.0 8.0 0.00 0.00 0.00 65 1001.8
20170425173423 54 88 3.0 6.0 0.00 0.00 0.00 65 1001.9
20170425172926 54 32 2.0 8.0 0.00 0.00 0.00 66 1001.9
20170425172547 53 90 2.0 8.0 0.00 0.00 0.00 67 1002.4
20170425172407 53 49 3.0 7.0 0.00 0.00 0.00 67 1002.1
20170425171419 52 74 2.0 6.0 0.00 0.00 0.00 69 1002.2
20170425170933 51 75 2.0 7.0 0.00 0.00 0.00 68 1002.5
20170425170921 51 73 3.0 7.0 0.00 0.00 0.00 68 1002.2
20170425170412 52 42 3.0 5.0 0.00 0.00 0.00 67 1002.2
20170425165913 53 44 2.0 5.0 0.00 0.00 0.00 67 1002.2
20170425165415 52 346 2.0 4.0 0.00 0.00 0.00 72 1002.2
20170425165323 52 346 1.0 4.0 0.00 0.00 0.00 72 1002.7
20170425164924 51 42 3.0 7.0 0.00 0.00 0.00 72 1002.3
20170425164409 49 102 4.0 7.0 0.00 0.00 0.00 75 1002.3
20170425163933 47 124 3.0 9.0 0.00 0.00 0.00 78 1002.3
20170425163717 46 78 4.0 9.0 0.00 0.00 0.00 78 1002.6
20170425163414 46 70 4.0 9.0 0.00 0.00 0.00 79 1002.3
20170425162914 45 69 6.0 8.0 0.00 0.00 0.00 79 1002.5
20170425162418 45 61 3.0 5.0 0.00 0.00 0.00 80 1002.6
20170425162124 44 64 2.0 8.0 0.00 0.00 0.00 81 1003.0
20170425161927 44 61 3.0 8.0 0.00 0.00 0.00 81 1002.6
20170425161409 44 90 4.0 8.0 0.00 0.00 0.00 81 1002.8
20170425160912 44 101 4.0 7.0 0.00 0.00 0.00 81 1002.6
20170425160524 43 69 3.0 6.0 0.00 0.00 0.00 82 1002.8
20170425160421 44 104 4.0 6.0 0.00 0.00 0.00 82 1002.4
20170425155920 44 43 2.0 6.0 0.00 0.00 0.00 82 1002.7
20170425155419 44 80 1.0 7.0 0.00 0.00 0.00 82 1002.6
20170425154921 44 55 1.0 5.0 0.00 0.00 0.00 81 1002.4
20170425154843 43 55 0.0 5.0 0.00 0.00 0.00 81 1002.8
20170425154508 44 56 2.0 7.0 0.00 0.00 0.00 82 1002.4
20170425153929 44 69 3.0 7.0 0.00 0.00 0.00 82 1002.1
20170425153756 43 85 3.0 6.0 0.00 0.00 0.00 82 1002.1
20170425152806 43 78 2.0 5.0 0.00 0.00 0.00 81 1002.9
20170425152419 44 84 4.0 6.0 0.00 0.00 0.00 80 1002.5
20170425151923 44 98 2.0 6.0 0.00 0.00 0.00 80 1002.6
20170425151406 45 91 0.0 6.0 0.00 0.00 0.00 81 1002.7
20170425151212 44 91 0.0 6.0 0.00 0.00 0.00 80 1003.0
20170425150916 45 94 4.0 6.0 0.00 0.00 0.00 79 1002.7
20170425150421 45 53 1.0 4.0 0.00 0.00 0.00 80 1002.7
20170425145930 45 59 2.0 6.0 0.00 0.00 0.00 81 1002.6
20170425145522 44 74 1.0 6.0 0.00 0.00 0.00 82 1003.0
20170425145421 44 89 3.0 6.0 0.00 0.00 0.00 81 1002.6
20170425144922 44 98 3.0 6.0 0.00 0.00 0.00 82 1002.7
20170425144405 44 80 2.0 5.0 0.00 0.00 0.00 83 1002.6
20170425143915 43 101 2.0 5.0 0.00 0.00 0.00 83 1002.8
20170425143906 43 101 2.0 5.0 0.00 0.00 0.00 83 1003.2
20170425143415 43 75 2.0 6.0 0.00 0.00 0.00 83 1002.7
20170425142916 43 76 3.0 6.0 0.00 0.00 0.00 83 1002.6
20170425142413 43 67 3.0 5.0 0.00 0.00 0.00 82 1002.8
20170425142112 43 101 3.0 6.0 0.00 0.00 0.00 83 1003.3
20170425141924 43 103 2.0 6.0 0.00 0.00 0.00 83 1003.0
20170425141407 43 103 1.0 6.0 0.00 0.00 0.00 84 1003.0
20170425140910 43 103 3.0 5.0 0.00 0.00 0.00 84 1002.9
20170425140427 42 56 2.0 6.0 0.00 0.00 0.00 86 1002.9
20170425140406 42 73 1.0 6.0 0.00 0.00 0.00 86 1003.3
20170425135909 42 80 4.0 6.0 0.00 0.00 0.00 86 1002.8
20170425135412 42 83 4.0 5.0 0.00 0.00 0.00 87 1002.8